Content
SEND FEEDBACK

Daily
Averages
Monthly
Summary
France

NONANCOURT, FRANCE


Home > Europe > France
Elevation: 489 feet     Latitude: 48 53N     Longitude: 001 15E

WEATHER
 
SELECT A DAY
Number of Records: 204,714;   Date Range: 7/1/96 - 9/30/14
 
SHARE

PRINT THIS DATA

[ ← Previous Day ]
WEATHER ALMANAC - FEBRUARY 13, 2013
[ Next Day → ]
[ °C ]   °F
Weather ElementAverageHighLow
Temperature31.7 °F33.8 °F (1:00 pm)30.2 °F (12:30 am)
Dewpoint24.1 °F26.6 °F (2:00 pm)21.2 °F (6:30 am)
Humidity73.9 %80 % (12:30 am)69 % (6:30 am)
Barometer30.18 in30.24 in (11:30 am)30.06 in (12:30 am)
Wind Speed7 mph12.7 mph (8:30 pm)
Weather ElementAverage
Visibility5.4 mi
Wind DirectionESE (96.8 °)

Weather ElementTotal
Precipitation---
Heating Degree Days33 (Base 65)
Averaged from 47 records on February 13, 2013
WEATHER CONDITIONS BREAKOUT
WIND DIRECTION BREAKOUT
WEATHER BY HOUR - FEBRUARY 13, 2013
[ °C ]   °F
Local TimeTemperatureDewpointHumidityBarometerVisibilityWind DirectionWind SpeedGust SpeedPrecipitationEventsConditions
12:30 AM30.2 °F24.8 °F80 %30.06 in4.3 miENE (60°)6.9 mphOvercast
1:00 AM30.2 °F24.8 °F80 %30.09 in4.3 miENE (60°)8.1 mphOvercast
1:30 AM30.2 °F23.0 °F75 %30.09 in4.3 miNE (50°)6.9 mphOvercast
2:00 AM30.2 °F23.0 °F75 %30.09 in4.3 miNE (40°)9.2 mphOvercast
2:30 AM30.2 °F23.0 °F75 %30.09 in4.3 miENE (70°)4.6 mphOvercast
3:00 AM30.2 °F23.0 °F75 %30.12 in5.0 miNNE (20°)4.6 mphOvercast
3:30 AM30.2 °F23.0 °F75 %30.12 in5.0 miNE (50°)3.5 mphOvercast
4:00 AM30.2 °F23.0 °F75 %30.12 in5.6 miVariable1.2 mphOvercast
4:30 AM30.2 °F23.0 °F75 %30.12 in5.6 miVariable2.3 mphOvercast
5:00 AM30.2 °F23.0 °F75 %30.12 in5.0 miVariable2.3 mphOvercast
5:30 AM30.2 °F23.0 °F75 %30.15 in5.0 miNNE (30°)2.3 mphOvercast
6:00 AM30.2 °F23.0 °F75 %30.15 in5.6 miVariable2.3 mphOvercast
6:30 AM30.2 °F21.2 °F69 %30.15 in5.6 miCalmOvercast
7:00 AM30.2 °F23.0 °F75 %30.15 in5.6 miVariable2.3 mphOvercast
7:30 AM30.2 °F23.0 °F75 %30.15 in5.6 miVariable2.3 mphOvercast
8:00 AM30.2 °F23.0 °F75 %30.15 in5.6 miEast (80°)3.5 mphOvercast
8:30 AM30.2 °F23.0 °F75 %30.18 in5.6 miEast (90°)4.6 mphOvercast
9:00 AM30.2 °F23.0 °F75 %30.18 in5.6 miEast (80°)4.6 mphOvercast
9:30 AM30.2 °F23.0 °F75 %30.21 in5.6 miENE (70°)4.6 mphOvercast
10:00 AM30.2 °F23.0 °F75 %30.21 in5.0 miEast (90°)6.9 mphOvercast
10:30 AM32.0 °F24.8 °F75 %30.21 in5.0 miEast (90°)6.9 mphOvercast
11:00 AM32.0 °F23.0 °F69 %30.21 in5.0 miEast (90°)4.6 mphOvercast
11:30 AM32.0 °F24.8 °F75 %30.24 in5.0 miESE (110°)5.8 mphOvercast
12:00 PM32.0 °F24.8 °F75 %30.24 in5.0 miESE (120°)5.8 mphOvercast
12:30 PM32.0 °F24.8 °F75 %30.24 in5.0 miESE (110°)6.9 mphOvercast
1:00 PM33.8 °F24.8 °F70 %30.24 in5.0 miSE (140°)5.8 mphOvercast
1:30 PM33.8 °F24.8 °F70 %30.21 in5.0 miSE (130°)9.2 mphOvercast
2:00 PM33.8 °F26.6 °F75 %30.21 in5.0 miSSE (150°)8.1 mphOvercast
2:30 PM33.8 °F24.8 °F70 %30.21 in5.6 miSSE (150°)9.2 mphOvercast
3:00 PM33.8 °F26.6 °F75 %30.21 in5.6 miSSE (150°)8.1 mphOvercast
3:30 PM33.8 °F24.8 °F70 %30.21 in6.2 miSouth (170°)6.9 mphOvercast
4:00 PM33.8 °F24.8 °F70 %30.21 in6.2 miSE (140°)8.1 mphOvercast
4:30 PM33.8 °F24.8 °F70 %30.21 in6.2 miSSE (150°)9.2 mphOvercast
5:00 PM33.8 °F24.8 °F70 %30.21 in6.2 miSE (140°)10.4 mphOvercast
5:30 PM33.8 °F24.8 °F70 %30.21 in6.2 miSSE (150°)10.4 mphOvercast
6:00 PM33.8 °F24.8 °F70 %30.21 in6.2 miSE (140°)9.2 mphOvercast
6:30 PM33.8 °F24.8 °F70 %30.21 in6.2 miSE (140°)9.2 mphOvercast
7:00 PM32.0 °F24.8 °F75 %30.21 in6.2 miSE (140°)9.2 mph
7:30 PM32.0 °F24.8 °F75 %30.21 in5.6 miSSE (150°)9.2 mph
8:00 PM32.0 °F24.8 °F75 %30.21 in5.6 miSE (140°)11.5 mph
8:30 PM32.0 °F24.8 °F75 %30.21 in5.6 miSSE (150°)12.7 mph
9:00 PM32.0 °F24.8 °F75 %30.21 in5.6 miSSE (150°)11.5 mph
9:30 PM32.0 °F24.8 °F75 %30.21 in5.0 miSSE (150°)11.5 mph
10:00 PM32.0 °F24.8 °F75 %30.21 in5.6 miSSE (150°)11.5 mph
10:30 PM32.0 °F24.8 °F75 %30.21 in5.6 miSSE (150°)10.4 mph
11:00 PM32.0 °F24.8 °F75 %30.21 in5.0 miSSE (150°)11.5 mph
11:30 PM32.0 °F24.8 °F75 %30.18 in5.0 miSSE (160°)12.7 mphMostly Cloudy
Hourly data recorded from LFOE, located miles away from Nonancourt, France







STORIES FROM OUR PARTNERS